Wetterdaten: Montag, 19.06.2017
Datum Zeit Temp. A. Feuchte A. Luftdruck Regen Wind Richtung Richtung Sonnenschein Helligkeit Solar
19.06.2017 00:00 22,2 C 64 % 1020,7 hPa 0,0 l/m 10,6 km/h (2 Bft) O22.5 80 0 min 0 lux 0 W/m
19.06.2017 00:05 22,1 C 64 % 1020,7 hPa 0,0 l/m 12,0 km/h (2 Bft) O22.5 80 0 min 0 lux 0 W/m
19.06.2017 00:10 22,0 C 64 % 1020,7 hPa 0,0 l/m 10,3 km/h (2 Bft) O-SO45 110 0 min 0 lux 0 W/m
19.06.2017 00:15 21,8 C 65 % 1020,7 hPa 0,0 l/m 6,7 km/h (2 Bft) O22.5 100 0 min 0 lux 0 W/m
19.06.2017 00:20 21,6 C 65 % 1020,7 hPa 0,0 l/m 0,6 km/h (0 Bft) O22.5 100 0 min 0 lux 0 W/m
19.06.2017 00:26 21,2 C 66 % 1020,7 hPa 0,0 l/m 1,4 km/h (1 Bft) O-SO22.5 105 0 min 0 lux 0 W/m
19.06.2017 00:30 21,1 C 66 % 1020,7 hPa 0,0 l/m 7,9 km/h (2 Bft) O22.5 95 0 min 0 lux 0 W/m
19.06.2017 00:35 21,0 C 67 % 1020,7 hPa 0,0 l/m 5,8 km/h (2 Bft) O45 85 0 min 0 lux 0 W/m
19.06.2017 00:40 20,9 C 68 % 1020,7 hPa 0,0 l/m 6,7 km/h (2 Bft) O22.5 95 0 min 0 lux 0 W/m
19.06.2017 00:45 20,8 C 68 % 1020,7 hPa 0,0 l/m 8,4 km/h (2 Bft) O-SO22.5 105 0 min 0 lux 0 W/m
19.06.2017 00:51 20,8 C 68 % 1020,7 hPa 0,0 l/m 7,9 km/h (2 Bft) O-SO22.5 105 0 min 0 lux 0 W/m
19.06.2017 00:55 20,8 C 69 % 1020,7 hPa 0,0 l/m 9,2 km/h (2 Bft) O-SO22.5 110 0 min 0 lux 0 W/m
19.06.2017 01:00 20,7 C 69 % 1020,7 hPa 0,0 l/m 6,3 km/h (2 Bft) O-SO22.5 105 0 min 0 lux 0 W/m
19.06.2017 01:05 20,6 C 69 % 1020,7 hPa 0,0 l/m 7,2 km/h (2 Bft) O22.5 100 0 min 0 lux 0 W/m
19.06.2017 01:11 20,5 C 69 % 1020,7 hPa 0,0 l/m 1,0 km/h (0 Bft) O 95 0 min 0 lux 0 W/m
19.06.2017 01:15 20,4 C 69 % 1020,7 hPa 0,0 l/m 0,6 km/h (0 Bft) O-SO22.5 105 0 min 0 lux 0 W/m
19.06.2017 01:20 20,3 C 69 % 1020,7 hPa 0,0 l/m 0,3 km/h (0 Bft) O-SO22.5 110 0 min 0 lux 0 W/m
19.06.2017 01:25 20,1 C 69 % 1020,7 hPa 0,0 l/m 0,5 km/h (0 Bft) O 95 0 min 0 lux 0 W/m
19.06.2017 01:30 20,0 C 69 % 1020,7 hPa 0,0 l/m 0,1 km/h (0 Bft) O 100 0 min 0 lux 0 W/m
19.06.2017 01:36 20,0 C 70 % 1020,7 hPa 0,0 l/m 0,3 km/h (0 Bft) O-SO22.5 105 0 min 0 lux 0 W/m
19.06.2017 01:40 20,0 C 70 % 1020,7 hPa 0,0 l/m 0,0 km/h (0 Bft) O-SO 105 0 min 0 lux 0 W/m
19.06.2017 01:45 20,0 C 70 % 1020,7 hPa 0,0 l/m 0,0 km/h (0 Bft) O 100 0 min 0 lux 0 W/m
19.06.2017 01:50 19,9 C 70 % 1020,7 hPa 0,0 l/m 0,0 km/h (0 Bft) O-SO 105 0 min 0 lux 0 W/m
19.06.2017 01:55 19,6 C 70 % 1020,7 hPa 0,0 l/m 0,0 km/h (0 Bft) O-SO 110 0 min 0 lux 0 W/m
19.06.2017 02:00 19,6 C 70 % 1020,7 hPa 0,0 l/m 0,0 km/h (0 Bft) O-SO 105 0 min 0 lux 0 W/m
19.06.2017 02:05 19,2 C 71 % 1020,7 hPa 0,0 l/m 0,0 km/h (0 Bft) O-SO 105 0 min 0 lux 0 W/m
19.06.2017 02:10 19,1 C 71 % 1020,7 hPa 0,0 l/m 0,1 km/h (0 Bft) O-SO 105 0 min 0 lux 0 W/m
19.06.2017 02:15 19,1 C 72 % 1020,7 hPa 0,0 l/m 0,0 km/h (0 Bft) O-SO 105 0 min 0 lux 0 W/m
19.06.2017 02:21 19,1 C 73 % 1020,7 hPa 0,0 l/m 0,3 km/h (0 Bft) O-SO 105 0 min 0 lux 0 W/m
19.06.2017 02:25 19,2 C 73 % 1020,7 hPa 0,0 l/m 0,0 km/h (0 Bft) O-SO 105 0 min 0 lux 0 W/m
19.06.2017 02:30 19,1 C 73 % 1020,7 hPa 0,0 l/m 0,2 km/h (0 Bft) O-SO 105 0 min 0 lux 0 W/m
19.06.2017 02:35 19,0 C 73 % 1020,7 hPa 0,0 l/m 0,1 km/h (0 Bft) O-SO 105 0 min 0 lux 0 W/m
19.06.2017 02:40 19,0 C 73 % 1020,7 hPa 0,0 l/m 0,8 km/h (0 Bft) O-SO 105 0 min 0 lux 0 W/m
19.06.2017 02:46 19,1 C 73 % 1020,7 hPa 0,0 l/m 2,7 km/h (1 Bft) O-SO 105 0 min 0 lux 0 W/m
19.06.2017 02:50 18,9 C 73 % 1020,7 hPa 0,0 l/m 0,1 km/h (0 Bft) O 100 0 min 0 lux 0 W/m
19.06.2017 02:55 18,9 C 73 % 1020,7 hPa 0,0 l/m 0,8 km/h (0 Bft) O-SO 105 0 min 0 lux 0 W/m
19.06.2017 03:00 18,9 C 73 % 1020,7 hPa 0,0 l/m 0,3 km/h (0 Bft) O-SO 110 0 min 0 lux 0 W/m
19.06.2017 03:05 18,9 C 73 % 1020,7 hPa 0,0 l/m 0,0 km/h (0 Bft) O-SO 120 0 min 0 lux 0 W/m
19.06.2017 03:10 18,8 C 73 % 1019,7 hPa 0,0 l/m 0,3 km/h (0 Bft) O-SO 115 0 min 0 lux 0 W/m
19.06.2017 03:15 18,7 C 73 % 1019,7 hPa 0,0 l/m 0,4 km/h (0 Bft) O-SO 110 0 min 0 lux 0 W/m
19.06.2017 03:20 18,7 C 74 % 1019,7 hPa 0,0 l/m 0,4 km/h (0 Bft) O-SO 110 0 min 0 lux 0 W/m
19.06.2017 03:25 18,7 C 73 % 1019,7 hPa 0,0 l/m 0,3 km/h (0 Bft) O-SO 110 0 min 0 lux 0 W/m
19.06.2017 03:31 18,6 C 73 % 1019,7 hPa 0,0 l/m 0,1 km/h (0 Bft) O-SO 110 0 min 0 lux 0 W/m
19.06.2017 03:35 18,3 C 73 % 1019,7 hPa 0,0 l/m 0,1 km/h (0 Bft) O-SO 110 0 min 0 lux 0 W/m
19.06.2017 03:40 18,1 C 74 % 1019,7 hPa 0,0 l/m 0,2 km/h (0 Bft) O-SO22.5 105 0 min 0 lux 0 W/m
19.06.2017 03:45 18,1 C 74 % 1019,7 hPa 0,0 l/m 1,6 km/h (1 Bft) O 95 0 min 0 lux 0 W/m
19.06.2017 03:50 18,1 C 74 % 1019,7 hPa 0,0 l/m 0,3 km/h (0 Bft) O22.5 95 0 min 0 lux 0 W/m
19.06.2017 03:55 18,2 C 75 % 1019,7 hPa 0,0 l/m 4,2 km/h (1 Bft) O 100 0 min 0 lux 0 W/m
19.06.2017 04:00 18,2 C 75 % 1019,7 hPa 0,0 l/m 0,3 km/h (0 Bft) O-SO 105 0 min 0 lux 0 W/m
19.06.2017 04:05 18,2 C 75 % 1019,7 hPa 0,0 l/m 0,1 km/h (0 Bft) O-SO 105 0 min 0 lux 0 W/m
19.06.2017 04:10 18,1 C 75 % 1019,7 hPa 0,0 l/m 0,4 km/h (0 Bft) O-SO 105 0 min 0 lux 0 W/m
19.06.2017 04:16 17,9 C 74 % 1019,7 hPa 0,0 l/m 0,1 km/h (0 Bft) O-SO 105 0 min 0 lux 0 W/m
19.06.2017 04:20 17,0 C 73 % 1019,7 hPa 0,0 l/m 0,0 km/h (0 Bft) O-SO 105 0 min 0 lux 0 W/m
19.06.2017 04:25 16,4 C 75 % 1019,7 hPa 0,0 l/m 0,0 km/h (0 Bft) O-SO 105 0 min 0 lux 0 W/m
19.06.2017 04:30 16,4 C 76 % 1019,7 hPa 0,0 l/m 0,0 km/h (0 Bft) O-SO 105 0 min 0 lux 0 W/m
19.06.2017 04:35 16,2 C 75 % 1019,7 hPa 0,0 l/m 0,0 km/h (0 Bft) O-SO 105 0 min 0 lux 0 W/m
19.06.2017 04:41 16,0 C 76 % 1019,7 hPa 0,0 l/m 0,0 km/h (0 Bft) O-SO 105 0 min 0 lux 0 W/m
19.06.2017 04:45 16,0 C 76 % 1019,7 hPa 0,0 l/m 0,0 km/h (0 Bft) O-SO 105 0 min 0 lux 0 W/m
19.06.2017 04:50 16,0 C 76 % 1019,7 hPa 0,0 l/m 0,0 km/h (0 Bft) O-SO 105 0 min 0 lux 0 W/m
19.06.2017 04:55 16,0 C 77 % 1019,7 hPa 0,0 l/m 0,0 km/h (0 Bft) O-SO 105 0 min 0 lux 0 W/m
19.06.2017 05:00 16,0 C 77 % 1019,7 hPa 0,0 l/m 0,0 km/h (0 Bft) O-SO 105 0 min 0 lux 0 W/m
19.06.2017 05:05 16,0 C 77 % 1019,7 hPa 0,0 l/m 0,0 km/h (0 Bft) O-SO 105 0 min 0 lux 0 W/m
19.06.2017 05:10 16,0 C 77 % 1019,7 hPa 0,0 l/m 0,0 km/h (0 Bft) O-SO 105 0 min 0 lux 0 W/m
19.06.2017 05:15 16,2 C 78 % 1019,7 hPa 0,0 l/m 0,0 km/h (0 Bft) O-SO 105 0 min 0 lux 0 W/m
19.06.2017 05:20 16,2 C 78 % 1019,7 hPa 0,0 l/m 0,0 km/h (0 Bft) O-SO 105 0 min 507 lux 0 W/m
19.06.2017 05:26 16,2 C 78 % 1019,7 hPa 0,0 l/m 0,0 km/h (0 Bft) O-SO 105 0 min 507 lux 3 W/m
19.06.2017 05:30 16,2 C 78 % 1019,7 hPa 0,0 l/m 0,0 km/h (0 Bft) O-SO 105 0 min 507 lux 3 W/m
19.06.2017 05:35 16,1 C 78 % 1019,7 hPa 0,0 l/m 0,0 km/h (0 Bft) O-SO 105 0 min 507 lux 3 W/m
19.06.2017 05:40 16,1 C 78 % 1019,7 hPa 0,0 l/m 0,0 km/h (0 Bft) O-SO 105 0 min 507 lux 3 W/m
19.06.2017 05:45 15,8 C 77 % 1019,7 hPa 0,0 l/m 0,0 km/h (0 Bft) O-SO 105 0 min 507 lux 3 W/m
19.06.2017 05:50 15,7 C 79 % 1019,7 hPa 0,0 l/m 0,0 km/h (0 Bft) O-SO 105 0 min 507 lux 3 W/m
19.06.2017 05:55 15,7 C 78 % 1019,7 hPa 0,0 l/m 0,0 km/h (0 Bft) O-SO 105 0 min 507 lux 3 W/m
19.06.2017 06:00 15,7 C 78 % 1019,7 hPa 0,0 l/m 0,0 km/h (0 Bft) O-SO 105 0 min 507 lux 3 W/m
19.06.2017 06:05 15,7 C 78 % 1019,7 hPa 0,0 l/m 0,0 km/h (0 Bft) O 100 0 min 507 lux 3 W/m
19.06.2017 06:11 15,7 C 78 % 1019,7 hPa 0,0 l/m 0,0 km/h (0 Bft) O 100 0 min 507 lux 3 W/m
19.06.2017 06:15 15,6 C 78 % 1019,7 hPa 0,0 l/m 0,0 km/h (0 Bft) O 100 0 min 507 lux 3 W/m
19.06.2017 06:20 15,8 C 78 % 1019,7 hPa 0,0 l/m 0,0 km/h (0 Bft) O 100 0 min 507 lux 3 W/m
19.06.2017 06:25 16,3 C 79 % 1019,7 hPa 0,0 l/m 0,0 km/h (0 Bft) O 100 0 min 507 lux 3 W/m
19.06.2017 06:30 16,7 C 79 % 1019,7 hPa 0,0 l/m 0,0 km/h (0 Bft) O 100 0 min 507 lux 3 W/m
19.06.2017 06:36 17,5 C 79 % 1019,7 hPa 0,0 l/m 0,0 km/h (0 Bft) O 100 0 min 507 lux 3 W/m
19.06.2017 06:40 18,0 C 78 % 1019,7 hPa 0,0 l/m 0,0 km/h (0 Bft) O 100 0 min 507 lux 3 W/m
19.06.2017 06:45 18,2 C 78 % 1019,7 hPa 0,0 l/m 0,0 km/h (0 Bft) O 100 0 min 507 lux 3 W/m
19.06.2017 06:50 18,5 C 77 % 1019,7 hPa 0,0 l/m 0,0 km/h (0 Bft) O 100 0 min 507 lux 3 W/m
19.06.2017 06:55 18,8 C 76 % 1019,7 hPa 0,0 l/m 0,1 km/h (0 Bft) O-SO22.5 120 0 min 507 lux 3 W/m
19.06.2017 07:00 19,0 C 76 % 1019,7 hPa 0,0 l/m 0,0 km/h (0 Bft) SO 125 5 min 23,3 klux 159 W/m
19.06.2017 07:05 19,2 C 75 % 1019,7 hPa 0,0 l/m 0,1 km/h (0 Bft) SO 125 5 min 23,3 klux 159 W/m
19.06.2017 07:10 19,1 C 74 % 1019,7 hPa 0,0 l/m 0,0 km/h (0 Bft) SO 125 5 min 23,3 klux 159 W/m
19.06.2017 07:15 19,2 C 74 % 1019,7 hPa 0,0 l/m 0,1 km/h (0 Bft) SO 125 5 min 27,0 klux 185 W/m
19.06.2017 07:21 19,2 C 74 % 1019,7 hPa 0,0 l/m 0,7 km/h (0 Bft) SO 125 6 min 27,0 klux 185 W/m
19.06.2017 07:25 19,5 C 74 % 1019,7 hPa 0,0 l/m 0,1 km/h (0 Bft) SO22.5 135 4 min 28,7 klux 196 W/m
19.06.2017 07:30 19,5 C 74 % 1019,7 hPa 0,0 l/m 0,0 km/h (0 Bft) SO 135 5 min 30,4 klux 208 W/m
19.06.2017 07:35 20,1 C 73 % 1019,7 hPa 0,0 l/m 0,3 km/h (0 Bft) SO 130 5 min 30,4 klux 208 W/m
19.06.2017 07:40 20,4 C 72 % 1019,7 hPa 0,0 l/m 0,3 km/h (0 Bft) SO 130 5 min 30,4 klux 208 W/m
19.06.2017 07:45 20,8 C 71 % 1019,7 hPa 0,0 l/m 0,3 km/h (0 Bft) SO 130 5 min 33,7 klux 231 W/m
19.06.2017 07:50 20,8 C 71 % 1019,7 hPa 0,0 l/m 1,4 km/h (1 Bft) S-SO 150 5 min 33,7 klux 231 W/m
19.06.2017 07:55 21,2 C 69 % 1019,7 hPa 0,0 l/m 7,0 km/h (2 Bft) S-SO22.5 150 5 min 33,7 klux 231 W/m
19.06.2017 08:00 21,4 C 67 % 1019,7 hPa 0,0 l/m 7,2 km/h (2 Bft) S-SO22.5 150 5 min 37,2 klux 254 W/m
19.06.2017 08:06 21,6 C 67 % 1019,7 hPa 0,0 l/m 9,4 km/h (2 Bft) S-SO22.5 150 6 min 37,2 klux 254 W/m
19.06.2017 08:10 21,7 C 67 % 1019,7 hPa 0,0 l/m 9,4 km/h (2 Bft) S-SO22.5 165 4 min 38,9 klux 266 W/m
19.06.2017 08:15 21,8 C 66 % 1019,7 hPa 0,0 l/m 11,9 km/h (2 Bft) S-SO22.5 160 5 min 38,9 klux 266 W/m
19.06.2017 08:20 22,2 C 65 % 1019,7 hPa 0,0 l/m 10,4 km/h (2 Bft) S22.5 170 5 min 38,9 klux 266 W/m
19.06.2017 08:25 22,3 C 64 % 1019,6 hPa 0,0 l/m 9,2 km/h (2 Bft) S-SO22.5 155 5 min 41,9 klux 287 W/m
19.06.2017 08:31 22,6 C 64 % 1019,6 hPa 0,0 l/m 10,7 km/h (2 Bft) S-SO22.5 165 6 min 43,2 klux 295 W/m
19.06.2017 08:35 22,8 C 63 % 1019,6 hPa 0,0 l/m 10,3 km/h (2 Bft) S22.5 170 4 min 43,2 klux 295 W/m
19.06.2017 08:40 22,9 C 63 % 1019,6 hPa 0,0 l/m 10,2 km/h (2 Bft) S-SO22.5 165 5 min 46,0 klux 315 W/m
19.06.2017 08:45 23,1 C 62 % 1019,6 hPa 0,0 l/m 10,5 km/h (2 Bft) S22.5 170 5 min 47,0 klux 321 W/m
19.06.2017 08:50 23,1 C 62 % 1019,6 hPa 0,0 l/m 10,2 km/h (2 Bft) S-SO22.5 160 5 min 47,0 klux 321 W/m
19.06.2017 08:55 23,5 C 61 % 1019,6 hPa 0,0 l/m 7,0 km/h (2 Bft) S22.5 180 5 min 49,2 klux 337 W/m
19.06.2017 09:00 23,9 C 60 % 1019,6 hPa 0,0 l/m 8,9 km/h (2 Bft) S-SO22.5 165 5 min 49,2 klux 337 W/m
19.06.2017 09:05 24,0 C 59 % 1019,6 hPa 0,0 l/m 10,5 km/h (2 Bft) S22.5 170 5 min 50,3 klux 344 W/m
19.06.2017 09:10 24,1 C 59 % 1019,6 hPa 0,0 l/m 7,9 km/h (2 Bft) S-SO45 155 5 min 51,4 klux 352 W/m
19.06.2017 09:15 24,5 C 59 % 1019,6 hPa 0,0 l/m 0,4 km/h (0 Bft) S-SO22.5 150 5 min 52,3 klux 358 W/m
19.06.2017 09:20 24,8 C 58 % 1019,6 hPa 0,0 l/m 7,5 km/h (2 Bft) SO45 145 5 min 54,0 klux 369 W/m
19.06.2017 09:25 25,0 C 57 % 1019,6 hPa 0,0 l/m 8,7 km/h (2 Bft) SO22.5 125 5 min 54,0 klux 369 W/m
19.06.2017 09:30 25,1 C 56 % 1019,6 hPa 0,0 l/m 8,8 km/h (2 Bft) S-SO45 150 5 min 55,6 klux 380 W/m
19.06.2017 09:35 25,3 C 56 % 1019,6 hPa 0,0 l/m 10,1 km/h (2 Bft) SO45 145 5 min 57,1 klux 391 W/m
19.06.2017 09:41 25,6 C 55 % 1019,6 hPa 0,0 l/m 8,9 km/h (2 Bft) S22.5 175 6 min 57,1 klux 391 W/m
19.06.2017 09:45 25,6 C 53 % 1019,6 hPa 0,0 l/m 7,8 km/h (2 Bft) S-SO22.5 160 4 min 57,1 klux 391 W/m
19.06.2017 09:50 25,8 C 52 % 1019,6 hPa 0,0 l/m 12,3 km/h (2 Bft) S-SO22.5 165 5 min 59,8 klux 409 W/m
19.06.2017 09:55 26,1 C 51 % 1019,6 hPa 0,0 l/m 6,4 km/h (2 Bft) S22.5 170 5 min 59,8 klux 409 W/m
19.06.2017 10:00 26,2 C 51 % 1019,6 hPa 0,0 l/m 10,5 km/h (2 Bft) S-SO22.5 155 5 min 59,8 klux 409 W/m
19.06.2017 10:05 26,7 C 50 % 1019,6 hPa 0,0 l/m 7,6 km/h (2 Bft) SO67.5 125 5 min 62,7 klux 429 W/m
19.06.2017 10:10 26,8 C 49 % 1019,6 hPa 0,0 l/m 5,9 km/h (2 Bft) SO22.5 130 5 min 63,5 klux 434 W/m
19.06.2017 10:15 26,9 C 49 % 1019,6 hPa 0,0 l/m 8,9 km/h (2 Bft) O-SO22.5 105 5 min 64,2 klux 439 W/m
19.06.2017 10:20 27,1 C 48 % 1019,6 hPa 0,0 l/m 7,0 km/h (2 Bft) SO45 140 5 min 64,2 klux 439 W/m
19.06.2017 10:25 27,2 C 46 % 1019,6 hPa 0,0 l/m 7,5 km/h (2 Bft) SO45 140 5 min 66,0 klux 451 W/m
19.06.2017 10:30 27,3 C 45 % 1019,6 hPa 0,0 l/m 7,6 km/h (2 Bft) SO45 135 5 min 67,0 klux 458 W/m
19.06.2017 10:35 27,4 C 45 % 1018,6 hPa 0,0 l/m 9,3 km/h (2 Bft) S-SO45 165 5 min 68,2 klux 466 W/m
19.06.2017 10:40 27,8 C 46 % 1018,6 hPa 0,0 l/m 4,2 km/h (1 Bft) S-SO22.5 165 5 min 69,0 klux 472 W/m
19.06.2017 10:45 27,7 C 45 % 1018,6 hPa 0,0 l/m 8,6 km/h (2 Bft) S-SO45 165 5 min 69,4 klux 475 W/m
19.06.2017 10:50 27,7 C 46 % 1018,6 hPa 0,0 l/m 1,1 km/h (1 Bft) S-SO22.5 150 5 min 69,8 klux 477 W/m
19.06.2017 10:55 28,0 C 43 % 1018,6 hPa 0,0 l/m 8,1 km/h (2 Bft) O-SO45 115 5 min 69,8 klux 477 W/m
19.06.2017 11:00 28,0 C 43 % 1018,6 hPa 0,0 l/m 9,2 km/h (2 Bft) SO67.5 135 5 min 71,2 klux 487 W/m
19.06.2017 11:05 28,0 C 43 % 1018,6 hPa 0,0 l/m 9,2 km/h (2 Bft) SO67.5 135 5 min 72,8 klux 498 W/m
19.06.2017 11:10 28,5 C 42 % 1018,6 hPa 0,0 l/m 12,2 km/h (2 Bft) SO45 135 5 min 72,7 klux 497 W/m
19.06.2017 11:15 28,7 C 41 % 1018,6 hPa 0,0 l/m 8,9 km/h (2 Bft) SO45 140 5 min 73,9 klux 505 W/m
19.06.2017 11:20 28,8 C 42 % 1018,6 hPa 0,0 l/m 10,5 km/h (2 Bft) SO45 140 5 min 73,9 klux 505 W/m
19.06.2017 11:25 28,8 C 41 % 1018,6 hPa 0,0 l/m 10,6 km/h (2 Bft) S22.5 180 5 min 75,1 klux 514 W/m
19.06.2017 11:30 29,2 C 40 % 1018,6 hPa 0,0 l/m 18,6 km/h (3 Bft) S45 190 5 min 75,1 klux 514 W/m
19.06.2017 11:35 29,0 C 38 % 1018,6 hPa 0,0 l/m 18,8 km/h (3 Bft) S22.5 175 5 min 76,1 klux 521 W/m
19.06.2017 11:40 29,0 C 38 % 1018,6 hPa 0,0 l/m 14,4 km/h (3 Bft) S45 180 5 min 77,0 klux 527 W/m
19.06.2017 11:45 29,2 C 38 % 1018,6 hPa 0,0 l/m 12,4 km/h (2 Bft) S-SW45 210 5 min 77,9 klux 533 W/m
19.06.2017 11:50 29,4 C 39 % 1018,6 hPa 0,0 l/m 11,3 km/h (2 Bft) S45 180 5 min 77,9 klux 533 W/m
19.06.2017 11:56 29,6 C 39 % 1018,6 hPa 0,0 l/m 13,6 km/h (3 Bft) S45 180 6 min 79,2 klux 542 W/m
19.06.2017 12:00 29,5 C 38 % 1018,6 hPa 0,0 l/m 8,2 km/h (2 Bft) SO67.5 130 4 min 79,2 klux 542 W/m
19.06.2017 12:05 29,4 C 38 % 1018,6 hPa 0,0 l/m 14,8 km/h (3 Bft) S-SO45 165 5 min 78,5 klux 537 W/m
19.06.2017 12:10 29,6 C 36 % 1018,6 hPa 0,0 l/m 18,0 km/h (3 Bft) S45 170 5 min 80,1 klux 548 W/m
19.06.2017 12:15 29,7 C 35 % 1018,6 hPa 0,0 l/m 19,2 km/h (3 Bft) S45 185 5 min 80,6 klux 551 W/m
19.06.2017 12:20 30,0 C 35 % 1018,6 hPa 0,0 l/m 12,0 km/h (2 Bft) S-SW22.5 195 5 min 80,6 klux 551 W/m
19.06.2017 12:25 29,9 C 36 % 1018,6 hPa 0,0 l/m 11,8 km/h (2 Bft) S45 185 5 min 81,4 klux 557 W/m
19.06.2017 12:30 29,9 C 35 % 1018,6 hPa 0,0 l/m 16,2 km/h (3 Bft) SW45 215 5 min 81,4 klux 557 W/m
19.06.2017 12:36 30,0 C 36 % 1017,5 hPa 0,0 l/m 17,6 km/h (3 Bft) S22.5 190 6 min 82,0 klux 561 W/m
19.06.2017 12:40 30,1 C 34 % 1017,5 hPa 0,0 l/m 16,2 km/h (3 Bft) S-SW22.5 210 4 min 82,8 klux 566 W/m
19.06.2017 12:45 30,2 C 34 % 1017,5 hPa 0,0 l/m 21,1 km/h (4 Bft) S-SW45 210 5 min 83,0 klux 568 W/m
19.06.2017 12:50 30,0 C 33 % 1017,5 hPa 0,0 l/m 21,1 km/h (4 Bft) S-SW45 210 5 min 83,2 klux 569 W/m
19.06.2017 12:55 30,2 C 34 % 1017,5 hPa 0,0 l/m 12,3 km/h (2 Bft) S-SO45 150 5 min 83,7 klux 573 W/m
19.06.2017 13:00 30,2 C 34 % 1017,5 hPa 0,0 l/m 12,3 km/h (2 Bft) S-SO45 150 5 min 83,7 klux 573 W/m
19.06.2017 13:05 30,4 C 34 % 1017,5 hPa 0,0 l/m 16,6 km/h (3 Bft) S45 185 5 min 83,7 klux 573 W/m
19.06.2017 13:10 30,6 C 33 % 1017,5 hPa 0,0 l/m 17,1 km/h (3 Bft) S45 175 5 min 83,7 klux 573 W/m
19.06.2017 13:15 30,4 C 33 % 1017,5 hPa 0,0 l/m 8,3 km/h (2 Bft) O-SO45 105 5 min 83,8 klux 573 W/m
19.06.2017 13:20 30,2 C 34 % 1017,5 hPa 0,0 l/m 10,6 km/h (2 Bft) N-NW 330 5 min 84,6 klux 579 W/m
19.06.2017 13:25 30,7 C 34 % 1017,5 hPa 0,0 l/m 19,0 km/h (3 Bft) S45 185 5 min 84,1 klux 575 W/m
19.06.2017 13:30 30,9 C 34 % 1017,5 hPa 0,0 l/m 15,7 km/h (3 Bft) S45 185 5 min 83,5 klux 571 W/m
19.06.2017 13:35 31,0 C 33 % 1017,5 hPa 0,0 l/m 11,0 km/h (2 Bft) SW45 215 5 min 83,4 klux 570 W/m
19.06.2017 13:40 31,2 C 34 % 1017,5 hPa 0,0 l/m 10,7 km/h (2 Bft) W45 265 5 min 83,8 klux 573 W/m
19.06.2017 13:45 31,0 C 32 % 1017,5 hPa 0,0 l/m 12,8 km/h (3 Bft) W22.5 275 5 min 83,6 klux 572 W/m
19.06.2017 13:50 31,2 C 33 % 1017,5 hPa 0,0 l/m 10,9 km/h (2 Bft) W-SW 245 5 min 84,4 klux 577 W/m
19.06.2017 13:55 31,6 C 33 % 1017,5 hPa 0,0 l/m 16,1 km/h (3 Bft) SO45 140 5 min 84,2 klux 576 W/m
19.06.2017 14:00 31,7 C 32 % 1017,5 hPa 0,0 l/m 14,5 km/h (3 Bft) S45 170 5 min 83,5 klux 571 W/m
19.06.2017 14:05 31,4 C 32 % 1017,5 hPa 0,0 l/m 18,7 km/h (3 Bft) S-SO22.5 165 5 min 83,2 klux 569 W/m
19.06.2017 14:10 31,6 C 33 % 1017,5 hPa 0,0 l/m 11,8 km/h (2 Bft) S22.5 180 5 min 82,6 klux 565 W/m
19.06.2017 14:15 31,6 C 32 % 1017,5 hPa 0,0 l/m 13,1 km/h (3 Bft) S-SW22.5 205 5 min 82,9 klux 567 W/m
19.06.2017 14:20 31,6 C 33 % 1016,5 hPa 0,0 l/m 13,3 km/h (3 Bft) S-SO67.5 150 5 min 82,8 klux 566 W/m
19.06.2017 14:25 31,7 C 32 % 1016,5 hPa 0,0 l/m 14,8 km/h (3 Bft) SO67.5 140 5 min 82,7 klux 566 W/m
19.06.2017 14:30 31,6 C 30 % 1016,5 hPa 0,0 l/m 11,3 km/h (2 Bft) SO45 130 5 min 82,9 klux 567 W/m
19.06.2017 14:35 31,7 C 33 % 1016,5 hPa 0,0 l/m 7,8 km/h (2 Bft) O67.5 90 5 min 82,1 klux 562 W/m
19.06.2017 14:40 31,8 C 31 % 1016,5 hPa 0,0 l/m 11,8 km/h (2 Bft) SO45 140 5 min 80,9 klux 553 W/m
19.06.2017 14:45 31,9 C 30 % 1016,5 hPa 0,0 l/m 17,7 km/h (3 Bft) S-SO45 160 5 min 80,1 klux 548 W/m
19.06.2017 14:51 31,9 C 29 % 1016,5 hPa 0,0 l/m 14,7 km/h (3 Bft) S22.5 170 6 min 81,5 klux 557 W/m
19.06.2017 14:55 32,0 C 30 % 1016,5 hPa 0,0 l/m 14,6 km/h (3 Bft) S-SO45 160 4 min 80,8 klux 553 W/m
19.06.2017 15:00 32,0 C 30 % 1016,5 hPa 0,0 l/m 12,7 km/h (3 Bft) S-SO45 165 5 min 80,5 klux 551 W/m
19.06.2017 15:06 32,0 C 30 % 1016,5 hPa 0,0 l/m 6,4 km/h (2 Bft) S22.5 190 6 min 80,0 klux 547 W/m
19.06.2017 15:10 31,8 C 32 % 1016,5 hPa 0,0 l/m 11,5 km/h (2 Bft) SW45 230 4 min 78,4 klux 536 W/m
19.06.2017 15:15 31,9 C 29 % 1016,5 hPa 0,0 l/m 14,6 km/h (3 Bft) S-SO 160 5 min 78,1 klux 534 W/m
19.06.2017 15:20 32,2 C 29 % 1016,5 hPa 0,0 l/m 8,6 km/h (2 Bft) S67.5 170 5 min 78,6 klux 538 W/m
19.06.2017 15:25 32,2 C 28 % 1016,5 hPa 0,0 l/m 10,4 km/h (2 Bft) O-SO67.5 105 5 min 77,2 klux 528 W/m
19.06.2017 15:31 31,9 C 29 % 1016,5 hPa 0,0 l/m 0,2 km/h (0 Bft) O-NO 70 6 min 77,0 klux 527 W/m
19.06.2017 15:35 32,4 C 29 % 1016,5 hPa 0,0 l/m 11,3 km/h (2 Bft) O-SO45 105 4 min 76,6 klux 524 W/m
19.06.2017 15:40 32,6 C 29 % 1016,5 hPa 0,0 l/m 16,6 km/h (3 Bft) S-SW45 205 5 min 76,0 klux 520 W/m
19.06.2017 15:45 32,7 C 29 % 1016,5 hPa 0,0 l/m 6,8 km/h (2 Bft) S-SO67.5 155 5 min 75,2 klux 514 W/m
19.06.2017 15:50 32,8 C 30 % 1016,5 hPa 0,0 l/m 12,0 km/h (2 Bft) S-SW45 210 5 min 74,4 klux 509 W/m
19.06.2017 15:56 33,1 C 29 % 1015,5 hPa 0,0 l/m 6,7 km/h (2 Bft) SO22.5 140 6 min 73,4 klux 502 W/m
19.06.2017 16:00 33,2 C 29 % 1015,5 hPa 0,0 l/m 10,8 km/h (2 Bft) S-SO67.5 155 4 min 72,8 klux 498 W/m
19.06.2017 16:05 33,0 C 28 % 1015,5 hPa 0,0 l/m 12,3 km/h (2 Bft) O-SO45 115 5 min 71,9 klux 492 W/m
19.06.2017 16:11 31,9 C 30 % 1015,5 hPa 0,0 l/m 12,0 km/h (2 Bft) N-NW45 335 6 min 71,7 klux 490 W/m
19.06.2017 16:15 32,3 C 29 % 1015,5 hPa 0,0 l/m 17,0 km/h (3 Bft) NW22.5 315 4 min 70,3 klux 481 W/m
19.06.2017 16:20 32,4 C 29 % 1015,5 hPa 0,0 l/m 11,0 km/h (2 Bft) O67.5 95 5 min 70,0 klux 479 W/m
19.06.2017 16:25 32,6 C 29 % 1015,5 hPa 0,0 l/m 6,2 km/h (2 Bft) S-SO45 150 5 min 68,7 klux 470 W/m
19.06.2017 16:30 32,8 C 29 % 1015,5 hPa 0,0 l/m 9,9 km/h (2 Bft) S45 185 5 min 68,6 klux 469 W/m
19.06.2017 16:36 32,8 C 28 % 1015,5 hPa 0,0 l/m 8,9 km/h (2 Bft) S-SO45 150 6 min 67,1 klux 459 W/m
19.06.2017 16:40 32,8 C 29 % 1015,5 hPa 0,0 l/m 19,5 km/h (3 Bft) SO22.5 135 4 min 66,0 klux 451 W/m
19.06.2017 16:45 32,7 C 29 % 1015,5 hPa 0,0 l/m 10,1 km/h (2 Bft) SO45 125 5 min 65,1 klux 445 W/m
19.06.2017 16:50 32,7 C 29 % 1015,5 hPa 0,0 l/m 1,0 km/h (0 Bft) O-SO22.5 115 5 min 63,8 klux 436 W/m
19.06.2017 16:55 32,6 C 29 % 1015,5 hPa 0,0 l/m 10,0 km/h (2 Bft) O-SO67.5 110 5 min 63,8 klux 436 W/m
19.06.2017 17:01 32,6 C 29 % 1015,5 hPa 0,0 l/m 9,1 km/h (2 Bft) S-SO45 150 6 min 62,2 klux 425 W/m
19.06.2017 17:05 33,2 C 29 % 1015,5 hPa 0,0 l/m 11,5 km/h (2 Bft) S-SW22.5 210 4 min 62,2 klux 425 W/m
19.06.2017 17:10 33,2 C 28 % 1015,5 hPa 0,0 l/m 12,8 km/h (3 Bft) SW22.5 220 5 min 59,8 klux 409 W/m
19.06.2017 17:15 33,2 C 29 % 1015,5 hPa 0,0 l/m 9,0 km/h (2 Bft) SW22.5 220 5 min 60,0 klux 410 W/m
19.06.2017 17:20 33,2 C 28 % 1015,5 hPa 0,0 l/m 5,8 km/h (2 Bft) W-SW22.5 245 5 min 59,3 klux 406 W/m
19.06.2017 17:25 32,9 C 28 % 1015,5 hPa 0,0 l/m 7,1 km/h (2 Bft) SO45 125 5 min 59,3 klux 406 W/m
19.06.2017 17:30 33,1 C 28 % 1015,5 hPa 0,0 l/m 9,6 km/h (2 Bft) NO67.5 50 5 min 58,4 klux 399 W/m
19.06.2017 17:35 33,4 C 28 % 1015,5 hPa 0,0 l/m 11,1 km/h (2 Bft) S-SW22.5 195 5 min 56,0 klux 383 W/m
19.06.2017 17:41 33,4 C 28 % 1015,5 hPa 0,0 l/m 11,8 km/h (2 Bft) S22.5 180 6 min 55,0 klux 376 W/m
19.06.2017 17:45 33,2 C 28 % 1014,5 hPa 0,0 l/m 4,5 km/h (1 Bft) S 180 4 min 55,0 klux 376 W/m
19.06.2017 17:50 32,6 C 30 % 1014,5 hPa 0,0 l/m 4,4 km/h (1 Bft) W-SW22.5 255 5 min 53,6 klux 367 W/m
19.06.2017 17:55 32,6 C 29 % 1014,5 hPa 0,0 l/m 6,0 km/h (2 Bft) W-NW22.5 290 5 min 52,6 klux 360 W/m
19.06.2017 18:00 32,3 C 30 % 1014,5 hPa 0,0 l/m 10,6 km/h (2 Bft) NW22.5 305 5 min 51,3 klux 351 W/m
19.06.2017 18:05 32,2 C 30 % 1014,5 hPa 0,0 l/m 3,7 km/h (1 Bft) W22.5 270 5 min 51,1 klux 350 W/m
19.06.2017 18:10 32,6 C 29 % 1014,5 hPa 0,0 l/m 0,0 km/h (0 Bft) W 260 5 min 49,7 klux 340 W/m
19.06.2017 18:15 32,8 C 29 % 1014,5 hPa 0,0 l/m 7,5 km/h (2 Bft) N-NW 340 5 min 47,9 klux 328 W/m
19.06.2017 18:20 32,8 C 29 % 1014,5 hPa 0,0 l/m 9,3 km/h (2 Bft) S-SO22.5 150 5 min 47,1 klux 322 W/m
19.06.2017 18:25 32,8 C 29 % 1014,5 hPa 0,0 l/m 12,1 km/h (2 Bft) S-SO22.5 165 5 min 46,2 klux 316 W/m
19.06.2017 18:30 32,8 C 28 % 1014,5 hPa 0,0 l/m 9,3 km/h (2 Bft) S-SO 160 5 min 45,3 klux 310 W/m
19.06.2017 18:35 32,8 C 28 % 1014,5 hPa 0,0 l/m 7,0 km/h (2 Bft) S45 180 5 min 42,5 klux 291 W/m
19.06.2017 18:40 32,7 C 28 % 1014,5 hPa 0,0 l/m 3,4 km/h (1 Bft) O-SO22.5 120 5 min 41,9 klux 287 W/m
19.06.2017 18:45 32,7 C 28 % 1014,5 hPa 0,0 l/m 4,6 km/h (1 Bft) S-SO45 150 5 min 40,7 klux 278 W/m
19.06.2017 18:50 32,4 C 28 % 1014,5 hPa 0,0 l/m 6,3 km/h (2 Bft) SO22.5 145 5 min 39,5 klux 270 W/m
19.06.2017 18:55 32,5 C 29 % 1014,5 hPa 0,0 l/m 10,1 km/h (2 Bft) S22.5 180 5 min 38,8 klux 265 W/m
19.06.2017 19:00 32,5 C 29 % 1014,5 hPa 0,0 l/m 10,1 km/h (2 Bft) S-SW45 195 5 min 38,6 klux 264 W/m
19.06.2017 19:05 32,8 C 28 % 1014,5 hPa 0,0 l/m 9,1 km/h (2 Bft) SO45 140 5 min 38,6 klux 264 W/m
19.06.2017 19:10 32,2 C 29 % 1014,5 hPa 0,0 l/m 7,6 km/h (2 Bft) SO22.5 130 5 min 34,1 klux 233 W/m
19.06.2017 19:15 31,9 C 30 % 1014,5 hPa 0,0 l/m 6,4 km/h (2 Bft) O-SO45 120 5 min 31,0 klux 212 W/m
19.06.2017 19:20 31,8 C 29 % 1014,5 hPa 0,0 l/m 6,6 km/h (2 Bft) O-SO22.5 115 5 min 29,7 klux 203 W/m
19.06.2017 19:25 31,5 C 30 % 1014,5 hPa 0,0 l/m 9,6 km/h (2 Bft) S-SO45 150 5 min 28,0 klux 192 W/m
19.06.2017 19:30 31,2 C 32 % 1014,5 hPa 0,0 l/m 7,3 km/h (2 Bft) SO 125 5 min 27,1 klux 185 W/m
19.06.2017 19:35 31,2 C 32 % 1014,5 hPa 0,0 l/m 8,2 km/h (2 Bft) O-SO22.5 120 5 min 26,6 klux 182 W/m
19.06.2017 19:40 31,1 C 32 % 1014,5 hPa 0,0 l/m 5,1 km/h (1 Bft) SO 125 5 min 25,5 klux 174 W/m
19.06.2017 19:45 31,1 C 32 % 1014,5 hPa 0,0 l/m 3,5 km/h (1 Bft) O-SO 120 5 min 25,5 klux 174 W/m
19.06.2017 19:50 31,2 C 32 % 1014,5 hPa 0,0 l/m 6,0 km/h (2 Bft) O-SO 120 5 min 24,0 klux 164 W/m
19.06.2017 19:55 31,0 C 33 % 1014,5 hPa 0,0 l/m 6,1 km/h (2 Bft) SO22.5 130 5 min 21,8 klux 149 W/m
19.06.2017 20:00 30,7 C 33 % 1014,5 hPa 0,0 l/m 11,1 km/h (2 Bft) SO22.5 130 5 min 20,2 klux 138 W/m
19.06.2017 20:05 30,5 C 32 % 1014,5 hPa 0,0 l/m 1,3 km/h (1 Bft) SO 125 0 min 18,4 klux 126 W/m
19.06.2017 20:10 30,4 C 33 % 1014,5 hPa 0,0 l/m 0,4 km/h (0 Bft) O 100 0 min 17,8 klux 122 W/m
19.06.2017 20:15 30,4 C 33 % 1014,5 hPa 0,0 l/m 0,5 km/h (0 Bft) O 95 0 min 15,9 klux 109 W/m
19.06.2017 20:20 30,4 C 33 % 1014,5 hPa 0,0 l/m 0,2 km/h (0 Bft) O 95 0 min 15,2 klux 104 W/m
19.06.2017 20:25 30,3 C 33 % 1014,5 hPa 0,0 l/m 0,0 km/h (0 Bft) O 95 0 min 6,08 klux 42 W/m
19.06.2017 20:30 30,2 C 34 % 1014,5 hPa 0,0 l/m 0,0 km/h (0 Bft) O 95 0 min 5,72 klux 39 W/m
19.06.2017 20:35 29,8 C 34 % 1014,5 hPa 0,0 l/m 0,0 km/h (0 Bft) O 95 0 min 5,07 klux 35 W/m
19.06.2017 20:40 29,7 C 34 % 1014,5 hPa 0,0 l/m 0,0 km/h (0 Bft) O 95 0 min 4,67 klux 32 W/m
19.06.2017 20:45 29,4 C 35 % 1014,5 hPa 0,0 l/m 0,3 km/h (0 Bft) O 95 0 min 4,53 klux 31 W/m
19.06.2017 20:50 29,1 C 35 % 1014,5 hPa 0,0 l/m 0,0 km/h (0 Bft) O 95 0 min 4,53 klux 31 W/m
19.06.2017 20:55 29,0 C 35 % 1014,6 hPa 0,0 l/m 0,1 km/h (0 Bft) O 95 0 min 3,78 klux 26 W/m
19.06.2017 21:00 28,8 C 35 % 1014,6 hPa 0,0 l/m 0,0 km/h (0 Bft) O 95 0 min 3,38 klux 23 W/m
19.06.2017 21:05 28,5 C 36 % 1014,6 hPa 0,0 l/m 0,1 km/h (0 Bft) O 95 0 min 3,09 klux 21 W/m
19.06.2017 21:11 28,2 C 36 % 1014,6 hPa 0,0 l/m 0,2 km/h (0 Bft) O 95 0 min 3,09 klux 21 W/m
19.06.2017 21:15 28,1 C 36 % 1014,6 hPa 0,0 l/m 0,0 km/h (0 Bft) O 95 0 min 2,51 klux 17 W/m
19.06.2017 21:20 28,0 C 37 % 1014,6 hPa 0,0 l/m 0,0 km/h (0 Bft) O 95 0 min 2,37 klux 16 W/m
19.06.2017 21:25 27,8 C 37 % 1014,6 hPa 0,0 l/m 0,0 km/h (0 Bft) O 95 0 min 1,96 klux 13 W/m
19.06.2017 21:30 27,8 C 37 % 1014,6 hPa 0,0 l/m 0,0 km/h (0 Bft) O 95 0 min 1,61 klux 11 W/m
19.06.2017 21:36 27,6 C 38 % 1014,6 hPa 0,0 l/m 0,0 km/h (0 Bft) O 95 0 min 1,22 klux 8 W/m
19.06.2017 21:40 27,5 C 38 % 1014,6 hPa 0,0 l/m 0,0 km/h (0 Bft) O 95 0 min 750 lux 5 W/m
19.06.2017 21:45 27,4 C 38 % 1014,6 hPa 0,0 l/m 0,0 km/h (0 Bft) O 95 0 min 628 lux 4 W/m
19.06.2017 21:50 26,9 C 43 % 1014,6 hPa 0,0 l/m 0,0 km/h (0 Bft) O 95 0 min 354 lux 0 W/m
19.06.2017 21:55 26,3 C 45 % 1014,6 hPa 0,0 l/m 0,0 km/h (0 Bft) O 95 0 min 302 lux 0 W/m
19.06.2017 22:00 26,1 C 45 % 1014,6 hPa 0,0 l/m 0,0 km/h (0 Bft) O 95 0 min 155 lux 0 W/m
19.06.2017 22:05 25,7 C 45 % 1014,6 hPa 0,0 l/m 0,0 km/h (0 Bft) O 95 0 min 99 lux 0 W/m
19.06.2017 22:10 25,1 C 48 % 1014,6 hPa 0,0 l/m 0,0 km/h (0 Bft) O 95 0 min 75 lux 0 W/m
19.06.2017 22:16 24,5 C 49 % 1014,6 hPa 0,0 l/m 6,2 km/h (2 Bft) O-NO22.5 65 0 min 57 lux 0 W/m
19.06.2017 22:20 24,4 C 49 % 1014,6 hPa 0,0 l/m 0,2 km/h (0 Bft) NO 50 0 min 57 lux 0 W/m
19.06.2017 22:25 24,3 C 49 % 1014,6 hPa 0,0 l/m 4,0 km/h (1 Bft) NO 50 0 min 13 lux 0 W/m
19.06.2017 22:30 24,5 C 48 % 1014,6 hPa 0,0 l/m 4,5 km/h (1 Bft) NO 50 0 min 9 lux 0 W/m
19.06.2017 22:35 24,6 C 48 % 1014,6 hPa 0,0 l/m 6,2 km/h (2 Bft) NO22.5 45 0 min 1 lux 0 W/m
19.06.2017 22:41 24,8 C 49 % 1014,6 hPa 0,0 l/m 4,9 km/h (1 Bft) N-NO 30 0 min 1 lux 0 W/m
19.06.2017 22:45 24,8 C 49 % 1014,6 hPa 0,0 l/m 3,1 km/h (1 Bft) N-NO 30 0 min 0 lux 0 W/m
19.06.2017 22:50 24,8 C 48 % 1014,6 hPa 0,0 l/m 3,2 km/h (1 Bft) N-NO 30 0 min 0 lux 0 W/m
19.06.2017 22:55 24,7 C 48 % 1014,6 hPa 0,0 l/m 1,2 km/h (1 Bft) N-NO 30 0 min 0 lux 0 W/m
19.06.2017 23:00 24,6 C 48 % 1014,6 hPa 0,0 l/m 3,6 km/h (1 Bft) N-NO 30 0 min 0 lux 0 W/m
19.06.2017 23:05 24,4 C 49 % 1014,6 hPa 0,0 l/m 3,6 km/h (1 Bft) N-NO 30 0 min 0 lux 0 W/m
19.06.2017 23:10 24,4 C 51 % 1014,6 hPa 0,0 l/m 6,3 km/h (2 Bft) N-NO 30 0 min 0 lux 0 W/m
19.06.2017 23:15 24,4 C 50 % 1014,6 hPa 0,0 l/m 6,1 km/h (2 Bft) N-NO 30 0 min 0 lux 0 W/m
19.06.2017 23:21 24,4 C 49 % 1014,6 hPa 0,0 l/m 5,2 km/h (1 Bft) N-NO 25 0 min 0 lux 0 W/m
19.06.2017 23:25 24,4 C 49 % 1014,6 hPa 0,0 l/m 4,3 km/h (1 Bft) N-NO 25 0 min 0 lux 0 W/m
19.06.2017 23:30 24,1 C 50 % 1014,6 hPa 0,0 l/m 4,5 km/h (1 Bft) N-NO 25 0 min 0 lux 0 W/m
19.06.2017 23:35 23,8 C 50 % 1014,6 hPa 0,0 l/m 0,1 km/h (0 Bft) N-NO 25 0 min 0 lux 0 W/m
19.06.2017 23:40 23,6 C 51 % 1014,6 hPa 0,0 l/m 0,0 km/h (0 Bft) N-NO 25 0 min 0 lux 0 W/m
19.06.2017 23:45 23,4 C 51 % 1014,6 hPa 0,0 l/m 0,0 km/h (0 Bft) N-NO 25 0 min 0 lux 0 W/m
19.06.2017 23:50 23,3 C 53 % 1014,6 hPa 0,0 l/m 0,0 km/h (0 Bft) N-NO 25 0 min 0 lux 0 W/m
19.06.2017 23:55 23,2 C 53 % 1014,6 hPa 0,0 l/m 0,0 km/h (0 Bft) N-NO 25 0 min 0 lux 0 W/m
_ Min-Zeit 06:15 15:25 17:45 - 01:40 - - - - -
Minimum _ 15,6 C 28 % 1014,5 hPa - 0,0 km/h (0 Bft) - - - - -
_ Max-Zeit 17:35 05:50 02:50 00:00 12:45 - - 07:21 13:20 13:20
Maximum _ 33,4 C 79 % 1020,7 hPa 0,0 l/m 21,1 km/h
S-SW (4 Bft)
- - 6 min 84,6 klux 579 W/m
Durchschnitt _ 25,6 C 50 % 1017,7 hPa #0,0 l/m 5,9 km/h (2 Bft) S-SO - #13:05 h 33,5 klux 335 W/m